Location: Béaulencourt
(50.0796°N, 2.8795°E)
Time: 23:48:39
(UTC+00:00)

Cosmos 841 Rocket - Pass Details

Date: 20 January 2026
Orbit: 743 x 766 km, 74.0° (Epoch: 18 February)

Event Time Altitude Azimuth Distance (km) Brightness Sun altitude
Exits shadow 06:33:39 - 334° (NNW) 2,912 6.1 -10.0°
Reaches altitude 10° 06:35:16 10° 333° (NNW) 2,281 5.5 -9.8°
Maximum altitude 06:40:25 73° 249° (WSW) 784 3.4 -9.0°
Drops below altitude 10° 06:45:30 10° 166° (SSE) 2,254 6.5 -8.2°
Sets 06:47:50 0° 164° (SSE) 3,172 7.3 -7.9°
